OpenBCM V2.0.2 (Linux)

Packet Radio Mailbox

IZ3LSV

[San Dona' di P. JN]

 Login: GUEST





  
CX2SA  > KEP      01.04.20 02:31l 86 Lines 3607 Bytes #999 (0) @ ARL
BID : ARLK026
Read: GUEST
Subj: ARLK026 Keplerian data
Path: IZ3LSV<IQ2LB<IQ5KG<I0OJJ<N6RME<CX2SA
Sent: 200331/2229Z @:CX2SA.SAL.URY.SOAM #:27628 [Salto] FBB7.00e $:ARLK026
From: CX2SA@CX2SA.SAL.URY.SOAM
To  : KEP@ARL


ZCZC SK26
QST de W1AW
Keplerian Bulletin 26  ARLK026
From ARRL Headquarters
Newington, CT  March 31, 2020
To all radio amateurs

SB KEP ARL ARLK026
ARLK026 Keplerian data

Special thanks to AMSAT-NA (AMSAT.ORG) for the following Keplerian
data.

Decode 2-line elsets with the following key:
1 AAAAAU 00  0  0 BBBBB.BBBBBBBB  .CCCCCCCC  00000-0  00000-0 0  DDDZ
2 AAAAA EEE.EEEE FFF.FFFF GGGGGGG HHH.HHHH III.IIII JJ.JJJJJJJJKKKKKZ
KEY: A-CATALOGNUM B-EPOCHTIME C-DECAY D-ELSETNUM E-INCLINATION F-RAAN
G-ECCENTRICITY H-ARGPERIGEE I-MNANOM J-MNMOTION K-ORBITNUM Z-CHECKSUM

0 AO-07
1 7530U 74089B   20090.87299326 -.00000020 +00000-0 +15734-3 0  9996
2 7530 101.7916 061.0796 0012290 153.8066 260.2773 12.53642695076142
0 FO-29
1 24278U 96046B   20090.86094633 -.00000030 +00000-0 +68069-5 0  9996
2 24278 098.5720 211.0277 0349764 218.2478 139.3377 13.53096927166259
0 ISS
1 25544U 98067A   20091.68993222  .00003063  00000-0  63882-4 0  9996
2 25544  51.6463  11.9366 0005154  74.4379 356.5680 15.48939904220001
0 SO-50
1 27607U 02058C   20090.88890033 +.00000005 +00000-0 +21352-4 0  9999
2 27607 064.5542 254.5726 0057785 197.4808 162.4307 14.75619965929130
0 CO-55
1 27844U 03031E   20090.77918699  .00000037  00000-0  36308-4 0  9993
2 27844  98.6846  99.6935 0008709 284.9903  75.0311 14.22228445868955
0 RS-22
1 27939U 03042A   20091.14505778 +.00000053 +00000-0 +18178-4 0  9995
2 27939 098.0766 227.0629 0011823 237.2299 122.7773 14.66846446882539
0 RS-30
1 32953U 08025A   20091.08633780 +.00000037 +00000-0 +19437-3 0  9991
2 32953 082.5053 326.6574 0018312 224.0670 135.8955 12.43094781537893
0 KKS-1
1 33499U 09002H   20090.92321125 +.00000068 +00000-0 +17974-4 0  9991
2 33499 098.3270 303.4229 0009594 022.8894 337.2740 14.75515860601434
0 AO-71
1 37854U 11061E   20090.83140988 +.00000575 +00000-0 +37168-4 0  9994
2 37854 101.7058 141.5263 0158597 295.6075 062.8822 15.07099436459631
0 AO-73
1 39444U 13066AE  20090.71038418 +.00000228 +00000-0 +34147-4 0  9998
2 39444 097.5600 095.3033 0058334 167.1931 193.0781 14.82086361341700
0 UKUBE 1
1 40074U 14037F   20091.09801715 +.00000247 +00000-0 +36662-4 0  9993
2 40074 098.4528 274.7669 0005059 023.7503 336.3936 14.84220669310136
0 XW-2A
1 40903U 15049E   20091.09724747 +.00001658 +00000-0 +39763-4 0  9999
2 40903 097.2977 139.9628 0013078 179.6521 264.3520 15.42794826254390
0 XW-2F
1 40910U 15049M   20091.10877781 +.00000847 +00000-0 +45190-4 0  9996
2 40910 097.4677 095.7687 0012902 274.4230 159.4181 15.17794216250452
0 XW-2B
1 40911U 15049N   20091.08041322 +.00000532 +00000-0 +31037-4 0  9994
2 40911 097.4765 093.9780 0012305 286.3129 144.2725 15.16131298250293
0 IO-86
1 40931U 15052B   20090.73017517  .00000773  00000-0  18522-4 0  9991
2 40931   5.9942 176.7454 0014078 244.3957 115.4778 14.76631445243605
0 CAS-4B
1 42759U 17034B   20091.14670598 +.00000155 +00000-0 +22938-4 0  9993
2 42759 043.0183 097.2812 0012336 261.6594 138.1757 15.09774699154138
0 CAS-4A
1 42761U 17034D   20091.24044560 +.00000015 +00000-0 +14387-4 0  9995
2 42761 043.0180 096.1137 0012785 262.7441 208.1278 15.09851668154146
0 AO-91
1 43017U 17073E   20090.70124910 +.00000606 +00000-0 +53129-4 0  9994
2 43017 097.7254 005.9663 0256115 307.1737 050.6333 14.78862261127520
0 AO-92
1 43137U 18004AC  20090.82745515 +.00000737 +00000-0 +33400-4 0  9990
2 43137 097.4521 162.5026 0008466 342.2364 017.8576 15.23966414123076

Keplerian bulletins are transmitted twice weekly from W1AW.  The
next scheduled transmission of these data will be Friday, April 3,
2020, at 2230z on Baudot and BPSK31.
NNNN


Read previous mail | Read next mail


 03.05.2026 04:08:37lGo back Go up